Retour au catalogue

STARLINK-11281

ActifCommunicationsVLEO
NORAD 60996·PAYLOAD·🇺🇸 United States

Lancé Sep 5, 2024 depuis Cape Canaveral Space Force Station

Loading…

Prochains Passages (prochaines 24 heures)

TLE

FraisSource: CelesTrak SupGP

Époque: Sep 14, 2026, 20:52 UTC

1 60996C 24158G   26257.86993056  .00042119  00000+0  34698-3 0  2574
2 60996  53.1571  68.8592 0001093  84.8493 325.5268 15.69686314    12

Suivez STARLINK-11281 en temps réel avec AllMySat

Download on the App Store